Tracking 35035 objects as of 16-Aug-2026
HD Live streaming from Space Station
objects crossing your sky now

STARLINK-32737

Track STARLINK-32737 now!
10-day predictions
STARLINK-32737 is classified as:


NORAD ID: 62444
Int'l Code: 2024-251N
Launch date: December 29, 2024
Source: United States (US)
Launch site: AIR FORCE WESTERN TEST RANGE (AFWTR)
Your satellite tracking list
Your tracking list is empty




NASA's NSSDC Master Catalog

Two Line Element Set (TLE):
1 62444U 24251N   26228.45453512  .00010700  00000-0  32741-3 0  9991
2 62444  53.1573 309.3485 0000424  76.5628 283.5422 15.34394820 92468
Source of the keplerian elements: AFSPC